CW0655 Weather Reports


time (UTC)temp
C
wind
direction
speed
KPH
gust
KPH
rain 1hr
cm
rain 24hr
cm
rain mn
cm
humidity
%
barometer
mb
20260507163105 16 57 3.2 11.3 0.00 0.71 0.08 43 1006.9
20260507162105 16 249 3.2 14.5 0.00 0.71 0.08 44 1007.1
20260507160105 16 281 3.2 16.1 0.00 0.71 0.08 48 1007.2
20260507153104 14 63 6.4 9.7 0.00 0.71 0.08 59 1007.4
20260507152104 13 246 0.0 6.4 0.00 0.71 0.08 61 1007.6
20260507151104 14 325 0.0 4.8 0.00 0.71 0.08 63 1007.5
20260507145104 13 236 3.2 8.0 0.00 0.71 0.08 66 1007.8
20260507144104 13 324 0.0 0.0 0.00 0.71 0.08 67 1007.8
20260507143104 13 331 0.0 1.6 0.00 0.71 0.08 67 1007.8
20260507142105 13 230 0.0 8.0 0.03 0.71 0.08 67 1007.7
20260507141104 13 225 1.6 8.0 0.03 0.71 0.08 65 1007.5
20260507134104 13 345 0.0 4.8 0.03 0.71 0.08 67 1007.6
20260507133104 13 38 0.0 16.1 0.03 0.71 0.08 70 1007.7
20260507132104 12 17 0.0 6.4 0.00 0.69 0.05 70 1007.8
20260507131104 12 360 1.6 6.4 0.00 0.69 0.05 74 1007.9
20260507130104 11 38 0.0 6.4 0.00 0.69 0.05 79 1008.0
20260507125104 11 261 0.0 1.6 0.00 0.69 0.05 80 1008.0
20260507124104 10 38 0.0 11.3 0.00 0.69 0.05 81 1008.1
20260507122104 10 5 0.0 0.0 0.00 0.69 0.05 88 1008.3
20260507120104 8 5 0.0 3.2 0.00 0.69 0.05 90 1008.2
20260507115104 8 5 0.0 0.0 0.00 0.69 0.05 91 1008.1
20260507114104 8 5 0.0 4.8 0.00 0.69 0.05 91 1008.1
20260507113104 8 5 0.0 0.0 0.00 0.69 0.05 92 1008.2
20260507112104 8 5 0.0 0.0 0.00 0.69 0.05 93 1008.0
20260507111104 8 5 0.0 0.0 0.00 0.69 0.05 93 1008.0
20260507110104 8 5 0.0 0.0 0.00 0.69 0.05 93 1007.9
20260507105104 8 5 0.0 0.0 0.00 0.69 0.05 93 1007.9
20260507104104 8 5 0.0 0.0 0.00 0.69 0.05 93 1007.6
20260507102103 8 5 0.0 0.0 0.00 0.69 0.05 94 1007.5
20260507101104 8 5 0.0 0.0 0.00 0.69 0.05 94 1007.4
20260507100104 8 5 0.0 0.0 0.00 0.69 0.05 94 1007.3
20260507095104 8 5 0.0 6.4 0.00 0.69 0.05 94 1007.4
20260507094104 8 5 0.0 3.2 0.00 0.69 0.05 95 1007.7
20260507092103 8 5 0.0 0.0 0.00 0.69 0.05 95 1007.6
20260507091103 8 5 0.0 0.0 0.00 0.69 0.05 95 1007.7
20260507090103 8 5 0.0 0.0 0.00 0.69 0.05 94 1007.8
20260507085103 8 5 0.0 0.0 0.03 0.69 0.05 94 1007.5
20260507084103 8 5 0.0 0.0 0.03 0.69 0.05 94 1007.8
20260507083104 8 5 0.0 0.0 0.03 0.69 0.05 94 1007.4
20260507082103 8 5 0.0 0.0 0.03 0.69 0.05 94 1007.3
20260507081103 8 5 0.0 1.6 0.03 0.69 0.05 94 1007.3
20260507080103 9 5 0.0 4.8 0.03 0.69 0.05 93 1007.0
20260507075103 9 28 0.0 3.2 0.00 0.66 0.03 94 1007.2
20260507074103 9 21 0.0 0.0 0.00 0.66 0.03 94 1007.3
20260507072103 9 32 0.0 0.0 0.00 0.66 0.03 95 1006.7
20260507071103 9 32 0.0 4.8 0.00 0.66 0.03 95 1006.6
20260507064103 10 15 0.0 0.0 0.00 0.66 0.03 95 1006.5
20260507062103 10 15 0.0 0.0 0.00 0.66 0.03 95 1006.5
20260507061103 10 14 0.0 0.0 0.00 0.66 0.03 95 1006.6
20260507055103 10 47 0.0 0.0 0.00 0.66 0.03 96 1006.6
20260507054103 10 47 0.0 1.6 0.00 0.66 0.03 96 1007.0
20260507053103 10 47 0.0 0.0 0.00 0.66 0.03 96 1007.1
20260507052103 10 47 0.0 6.4 0.00 0.66 0.03 96 1007.0
20260507051103 10 39 0.0 0.0 0.00 0.66 0.03 96 1007.0
20260507045103 11 89 0.0 0.0 0.05 0.66 0.03 96 1006.8
20260507044103 11 89 0.0 0.0 0.10 0.66 0.03 96 1006.8
20260507043103 11 142 0.0 8.0 0.10 0.66 0.03 96 1006.8
20260507042103 12 9 0.0 6.4 0.10 0.66 0.03 96 1006.7
20260507041103 12 334 0.0 0.0 0.10 0.66 0.03 96 1006.9
20260507035103 12 334 0.0 0.0 0.05 0.61 0.61 96 1006.7
20260507034103 12 334 0.0 1.6 0.00 0.56 0.56 96 1006.5
20260507033103 13 334 1.6 4.8 0.00 0.56 0.56 96 1006.2
20260507032103 13 305 0.0 9.7 0.00 0.56 0.56 96 1006.0
20260507031103 14 360 0.0 4.8 0.00 0.56 0.56 97 1005.8
20260507025103 15 190 0.0 0.0 0.00 0.56 0.56 96 1005.9
20260507024103 15 190 0.0 0.0 0.00 0.56 0.56 96 1005.8
20260507023103 15 190 0.0 0.0 0.00 0.56 0.56 96 1005.8
20260507021103 14 190 0.0 0.0 0.00 0.56 0.56 96 1005.4
20260507015102 14 190 0.0 0.0 0.00 0.56 0.56 96 1005.4
20260507014102 14 190 0.0 3.2 0.00 0.56 0.56 96 1005.4
20260507013102 14 191 1.6 6.4 0.00 0.56 0.56 96 1005.5
20260507012102 14 188 1.6 3.2 0.00 0.56 0.56 96 1005.5
20260507005102 14 198 0.0 6.4 0.00 0.56 0.56 96 1005.5
20260507003102 14 197 0.0 1.6 0.00 0.56 0.56 96 1005.4
20260507002102 15 196 0.0 4.8 0.00 0.56 0.56 96 1005.3
20260507001102 15 199 0.0 4.8 0.03 0.56 0.56 96 1005.3
20260506234102 15 182 0.0 6.4 0.18 0.56 0.56 96 1005.1
20260506233102 15 163 3.2 4.8 0.20 0.56 0.56 96 1005.1
20260506232102 15 164 0.0 8.0 0.23 0.56 0.56 96 1005.1
20260506231102 15 130 0.0 4.8 0.23 0.53 0.53 96 1005.2
20260506225102 15 187 0.0 8.0 0.15 0.41 0.41 96 1005.5
20260506224102 15 188 0.0 4.8 0.15 0.38 0.38 95 1005.5
20260506223102 15 186 0.0 6.4 0.13 0.36 0.36 95 1005.3
20260506222102 15 168 0.0 0.0 0.10 0.33 0.33 95 1005.5
20260506221102 15 172 0.0 6.4 0.08 0.30 0.30 95 1005.5
20260506215102 15 185 1.6 6.4 0.05 0.25 0.25 95 1005.6
20260506214102 15 162 4.8 6.4 0.03 0.23 0.23 95 1005.6
20260506213102 15 211 0.0 4.8 0.05 0.23 0.23 95 1005.6
20260506212102 15 146 0.0 4.8 0.08 0.23 0.23 95 1005.7
20260506205102 15 199 0.0 8.0 0.10 0.20 0.20 94 1006.1
20260506204101 16 246 0.0 9.7 0.10 0.20 0.20 94 1006.3
20260506203102 16 199 0.0 6.4 0.08 0.18 0.18 93 1006.3
20260506202102 16 229 3.2 9.7 0.05 0.15 0.15 92 1006.3
20260506201102 16 127 1.6 9.7 0.05 0.15 0.15 91 1006.1
20260506194102 16 198 0.0 6.4 0.08 0.10 0.10 90 1006.4
20260506193101 17 215 0.0 8.0 0.10 0.10 0.10 90 1006.3
20260506192102 17 217 6.4 8.0 0.10 0.10 0.10 89 1006.4
20260506184101 18 207 0.0 4.8 0.03 0.03 0.03 81 1006.6
20260506182101 20 193 0.0 11.3 0.00 0.00 0.00 72 1006.7
20260506175101 21 190 8.0 11.3 0.00 0.00 0.00 63 1006.8
20260506174101 21 231 6.4 11.3 0.00 0.00 0.00 61 1006.6
20260506173101 22 193 4.8 12.9 0.00 0.00 0.00 61 1006.6
20260506172101 22 131 6.4 16.1 0.00 0.00 0.00 60 1006.3
20260506171101 22 129 3.2 9.7 0.00 0.00 0.00 60 1006.5
20260506165101 22 240 0.0 11.3 0.00 0.00 0.00 63 1007.0